Погода в Сочи

Погода в Сочи : погода сейчас, прогноз погоды и архив. Всё, что Вы хотите узнать о погоде в Сочи!

Поиск расширенной информации на нашем сайте:

Другие новости

Новости СМИ2

Главная страница сайта

Новости сайта

02.10.2013

Напоминаем, что на нашем новом сайте вы можете получить высокодетализированные прогнозы погоды по пунктам России, СНГ и мира (включающие важные для авиации метеовеличины, такие как направление и скорость ветра, видимость, явления погоды, количество и форма облачности, нижняя и верхняя граница облачности), а также ознакомиться с разнообразными материалами по авиационной метеорологии и подборкой полезных ссылок на эту тему.

Сайт Метеоцентр.Азия посвящён разработке технологий оптимизации авиаметеорологического обслуживания, включая проектирование и перспективное создание нескольких автоматизированных авиаметеорологических систем:
- система выпуска высокодетальных прогностических карт явлений погоды для нижнего воздушного пространства по России и ближнему зарубежью;
- система верификации прогнозов TAF (выпускаемых синоптиками официальных АМСГ РФ и ближнего зарубежья) и AUTOTAF (выпускаемых сайтом Метеоцентр.Азия) - выявление ошибок, онлайн-сопоставление с фактической погодой METAR, автоматическое внесение коррективов в прогнозы при резком отклонении фактической погоды от прогноза, подсчёт оправдываемости прогнозов по элементам и в целом;
- система обработки, анализа и отображения авиаметеорологической информации для применения провайдерами метеорологической информации.


Погода в Сочи - сегодня

Время (UTC), дата Ветер
(°,м/с) 
Видим.   Явления Облачность Т
(°С)
Тd
(°С)
f(%) Тe
(°С)
Pmin
(гПа)
dP
(гПа)
Po
(мм)
O2
(г/м3)
Тmin Tmax R s Состояние
почвы
09 26.04.17 270 (З) 20000 м    ясно 
+13.3 +4.1 54 +12  1026.5  -1.6  769  295           
12 26.04.17 290 (З) 20000 м    ясно 
+14.5 +5.1 53 +14  1025.1  -1.4  767  293           
15 26.04.17 290 (З) 20000 м    ясно 
+14 +2.9 47 +13  1023  -2.1  766  293    +16.4       
18 26.04.17 080 (В) 4000 м    ясно 
+10.2 +5.5 73 +10  1023  766  297           
21 26.04.17 090 (В) 4000 м    ясно 
+7.5 +5 84 +7  1022.6  -0.5  766  299           
00 27.04.17 070 (В) 4000 м    ясно 
+9.9 +3.2 63 +9  1022.5  766  297           
03 27.04.17 060 (СВ) 20000 м    ясно 
+8.1 +4 75 +7  1022.2  -0.3  765  299  +7        влажная 
06 27.04.17 070 (В) 20000 м    ясно 
+17.3 +3.8 41 +18  1022.6  0.4  766  290           
09 27.04.17 290 (З) 20000 м    ясно 
+18.2 +1.9 34 +19  1021.9  -0.7  765  289           
12 27.04.17 290 (З) 20000 м    ясно 
+18.5 +2.1 33 +19  1021  -0.9  764  288           
15 27.04.17 310 (СЗ) 20000 м    ясно 
+16.8 +1.9 37 +17  1020.4  -0.6  764  290    +19.8       
18 27.04.17 220 (ЮЗ) 4000 м    ясно 
+13 +6.8 66 +14  1020.3  -0.1  764  293           
21 27.04.17 090 (В) 4000 м    ясно 
+11.2 +3.4 59 +11  1019.9  -0.4  764  295           
00 28.04.17 100 (В) 4000 м    ясно 
+8.6 +4.8 77 +10  1019.4  -0.5  763  297           
03 28.04.17 060 (СВ) 4000 м    ясно 
+9.9 +4.3 68 +9  1019.3  -0.1  763  296  +7.6         
06 28.04.17 230 (ЮЗ) 20000 м    ясно 
+18.6 +5 41 +20  1019.5  0.2  763  287           
09 28.04.17 290 (З) 20000 м    ясно 
+20.2 +3.4 33 +20  1019.3  -0.2  763  286           
12 28.04.17 280 (З) 5{11}  20000 м    ясно 
+20 +4.8 37 +20  1018.1  -1.2  762  285           
15 28.04.17 280 (З) 20000 м    ясно 
+20.8 +6.7 40 +21  1016.8  -1.3  761  284    +21.7       
18 28.04.17 тихо ()   4000 м    ясно 
+14.4 +6.1 57 +14  1016.9  0.1  761  290           
21 28.04.17 070 (В) 4000 м    ясно 
+14.9 +6.2 56 +15  1016.7  -0.2  761  290           
00 29.04.17 070 (В) 4000 м    ясно 
+13.9 +4.6 53 +13  1015.9  -0.8  761  291           
03 29.04.17 070 (В) 20000 м    ясно 
+10.9 +5.5 69 +11  1016.5  0.6  761  294  +10.8         
06 29.04.17 тихо ()   20000 м    ясно 
+19.4 +7.3 45 +19  1016.3  -0.2  761  285           
09 29.04.17 260 (З) 20000 м    ясно 
+19.8 +7.8 46 +21  1016.5  0.2  761  285           
Время (UTC), дата Ветер
(°,м/с) 
Видим.   Явления Облачность Т
(°С)
Тd
(°С)
f(%) Тe
(°С)
Pmin
(гПа)
dP
(гПа)
Po
(мм)
O2
(г/м3)
Тmin Tmax R s Состояние
почвы

Для получения пояснительной информации подведите курсор к названию столбца.

ПОГОДА в Сочи - архив

Всё, что Вы хотите узнать о погоде в Сочи - удобно и подробно!

Выберите нужную дату (начиная с 1 января 2015* года) и нажмите кнопку "Найти".
Будут отображены архивные сводки погоды по пункту Сочи, начиная с указанной даты.


Отображать данные в формате CSV (для использования в таблицах Excel)


Внимание! Наш архив погоды предназначен исключительно для личного некоммерческого использования в познавательных целях. Если Вам необходимы официальные справки о состоянии погоды (для производственных, юридических, коммерческих и т.п. целей), обращайтесь в органы Росгидромета.

*Примечание: данная дата относится к архиву по метеостанциям СССР (Россия, СНГ, Балтия).
Архив по метеостанциям Зарубежной Европы и Азии (кроме Китая) хранится 10 дней, по другим регионам земного шара (Китай, Африка, Америка, Австралия, Океания) - 1 день.

Сочи - район местоположения метеостанции


Название, широта, долгота, высота метеостанции:
Сочи (Адлер) 43.4°ш. 39.9°д. 13 м над ур. моря [Российская Федерация]

Дополнительная информация

В oтличие oт бoльшинства пoгoдных сайтoв мы публикуем пoдрoбную метеoинфoрмацию в детальнoм прoфессиoнальнoм фoрмате.

Характеристики температуры и влажнoсти вoздуха измеряются на высoте 2 м в тени вдали oт зданий и деревьев.
Скoрoсть ветра измеряется на высoте 10 м (на урoвне рoста челoвека скoрoсть ветра ниже в 1.5-2 раза). Если метеoстанция нахoдится в гoрoде или в лесу, тo скoрoсть ветра занижена на 2-4 м/с пo сравнению с oткрытым местoм. Скoрoсть ветра над акватoриями крупных рек и oзёр, а также на вершинах хoлмoв на 2-5 м/с выше, чем в oбычных услoвиях.
Атмoсфернoе давление в разных тoчках местнoсти мoжет значительнo oтличаться oт давления на метеoстанции, в зависимoсти oт услoвий рельефа (при пoдъёме на 10 м давление пoнижается примернo на 1 мм рт.ст.).